Regional Weather Roundup
Issued by NWS

Home | Current Version | Previous Version | Text Only | Print | Product List | Glossary Off
Versions: 1 2 3 4 5 6 7 8 9 10 11 12 13 14 15 16 17 18 19 20 21 22 23 24 25 26 27 28 29 30 31 32 33 34 35 36 37 38 39 40 41 42 43 44 45 46 47 48 49 50

000
ASUS43 KFSD 290010
RWRSD

WEATHER ROUNDUP FOR SOUTH DAKOTA
NATIONAL WEATHER SERVICE SIOUX FALLS SD
700 PM CDT SAT MAY 28 2016

NOTE: "FAIR" INDICATES FEW OR NO CLOUDS BELOW 12,000 FEET WITH NO
SIGNIFICANT WEATHER AND/OR OBSTRUCTIONS TO VISIBILITY.


SDZ001>005-009-010-012>017-290100-
NORTHWEST AND NORTH CENTRAL SOUTH DAKOTA

CITY           SKY/WX    TMP DP  RH WIND       PRES   REMARKS
BUFFALO          N/A     71  43  36 NW20G30   29.86S
FAITH            N/A     64  52  64 E3        29.92R
MOBRIDGE       CLOUDY    73  51  46 CALM      29.84R
$$

SDZ012>016-024>037-041>051-057-063-072>074-290100-
SOUTHWEST AND SOUTH CENTRAL SOUTH DAKOTA

CITY           SKY/WX    TMP DP  RH WIND       PRES   REMARKS
RAPID CTY ARPT CLOUDY    65  50  58 S7        29.96R
PIERRE         MOSUNNY   72  55  55 SE8       29.86R
CUSTER         LGT RAIN  48  44  86 SE10G22   30.04F FOG
ELLSWORTH AFB  CLOUDY    66  51  58 S8        29.95R
PHILIP         MOSUNNY   71  48  43 NW5       29.90R
PINE RIDGE     TSTM      56  48  74 W14G26    30.01R
WINNER         FAIR      71  56  58 E7        29.90R
$$

SDZ004>011-016>023-039-040-290100-
NORTHEAST SOUTH DAKOTA

CITY           SKY/WX    TMP DP  RH WIND       PRES   REMARKS
ABERDEEN       MOSUNNY   70  57  63 NE5       29.84S
WATERTOWN      CLOUDY    65  56  72 N6        29.84R
BROOKINGS      MOSUNNY   63  57  81 N8        29.84R
SISSETON         N/A     68  54  60 N8        29.81R
$$

SDZ017-020-022-023-036>040-048>070-290100-
SOUTHEAST SOUTH DAKOTA

CITY           SKY/WX    TMP DP  RH WIND       PRES   REMARKS
SIOUX FALLS    RAIN      59  55  87 N14       29.83R FOG
HURON          CLOUDY    66  58  75 N5        29.86R
CHAMBERLAIN    PTSUNNY   70  60  68 CALM      29.88S
MITCHELL       CLOUDY    65  58  78 NW7       29.87R
YANKTON        CLOUDY    63  57  82 NW12      29.84R
$$

ABBREVIATIONS USED IN REMARKS
   TC - TEMPERATURE IN CELSIUS
  WCI - WIND CHILL INDEX
   HX - HEAT INDEX
  VSB - VISIBILITY




USA.gov is the U.S. government's official web portal to all federal, state and local government web resources and services.